Location: Hains Lake
(37.8540°N, 99.8578°W)
Time: 15:57:24
(UTC+00:00)

Courier 1B Rocket - Pass Details

Date: 21 April 2021
Orbit: 920 x 1202 km, 28.3° (Epoch: 10 May)

Event Time Altitude Azimuth Distance (km) Brightness Sun altitude
Rises 01:58:03 0° 234° (SW) 3,646 8.5 -7.9°
Reaches altitude 10° 02:00:56 10° 224° (SW) 2,738 7.7 -8.4°
Maximum altitude 02:06:37 30° 165° (SSE) 1,751 6.0 -9.5°
Enters shadow 02:11:54 13° 111° (ESE) 2,702 6.6 -10.4°
